Location: ??????
(31.2056°N, 45.3906°E)
Time: 15:27:53
(UTC+00:00)

USA 186 - Pass Details

Date: 09 April 2020
Orbit: 263 x 447 km, 96.9° (Epoch: 21 May)

Event Time Altitude Azimuth Distance (km) Brightness Sun altitude
Exits shadow 16:27:21 22° 143° (SE) 1,014 3.2 -14.1°
Maximum altitude 16:29:13 48° 77° (ENE) 573 2.0 -14.5°
Drops below altitude 10° 16:32:20 10° 2° (N) 1,501 4.8 -15.1°
Sets 16:34:19 0° 356° (N) 2,337 5.9 -15.5°
